Weather History for LIEC - November, 2013

Change the Weather History Date:

Monday, November 18, 2013

  Actual Average Record
Temperature  
Mean Temperature 64 °F -  
Max Temperature 70 °F - - ()
Min Temperature 57 °F - - ()
Degree Days  
Heating Degree Days 2    
Growing Degree Days 14 (Base 50)    
Moisture  
Dew Point 58 °F    
Average Humidity 79    
Maximum Humidity 88    
Minimum Humidity 66    
Precipitation  
Precipitation 0.31 in - - ()
Sea Level Pressure  
Sea Level Pressure 29.69 in    
Wind  
Wind Speed 23 mph ()    
Max Wind Speed 38 mph    
Max Gust Speed 53 mph    
Visibility 5.9 miles    
Events Rain , Thunderstorm    
T = Trace of Precipitation, MM = Missing Value Source: Averaged Metar Reports

Daily Weather History Graph

Daily Weather History Graph

Search for Another Location

Airport or City:

Trip Planner

Search our weather history database for the weather conditions in past years. The results will help you decide how hot, cold, wet, or windy it might be!

Date:

Astronomy

Nov. 18, 2013 Rise Set
Actual Time 7:08 AM CET 5:05 PM CET
Civil Twilight 6:39 AM CET 5:34 PM CET
Nautical Twilight 6:07 AM CET 6:06 PM CET
Astronomical Twilight 5:35 AM CET 6:38 PM CET
Moon 5:55 PM CET (11/18) 7:42 AM CET (11/18)
Length of Visible Light 10h 54m
Length of Day
9h 57m
Full, 99% of the Moon is Illuminated
Nov 18
Full
Nov 25
Last Quarter
Dec 3
New
Dec 9
First Quarter
Dec 17
Full

Hourly Weather History & Observations

Time (CET) Temp. Dew Point Humidity Pressure Visibility Wind Dir Wind Speed Gust Speed Precip Events Conditions
12:55 AM 64.4 °F 59.0 °F 83% 29.95 in 6.2 mi East 19.6 mph - N/A   Scattered Clouds
1:00 AM 65 °F 60 °F 78% 29.95 in 6 mi East 19.6 mph - -   Partly Cloudy
1:55 AM 64.4 °F 59.0 °F 83% 29.92 in 6.2 mi East 19.6 mph - N/A   Partly Cloudy
2:55 AM 64.4 °F 59.0 °F 83% 29.92 in 6.2 mi East 19.6 mph - N/A   Partly Cloudy
3:09 AM 64.4 °F 59.0 °F 83% 29.89 in 6.2 mi East 21.9 mph - N/A Thunderstorm Thunderstorm
3:55 AM 66.2 °F 60.8 °F 83% 29.86 in 6.2 mi ESE 21.9 mph - N/A Thunderstorm Thunderstorm
4:00 AM 65 °F 60 °F 80% 29.86 in 6 mi ESE 21.9 mph - - Thunderstorm Thunderstorm
4:55 AM 66.2 °F 60.8 °F 83% 29.86 in 6.2 mi ESE 27.6 mph - N/A Thunderstorm Thunderstorm
5:55 AM 64.4 °F 59.0 °F 83% 29.77 in 6.2 mi ESE 29.9 mph - N/A Thunderstorm Thunderstorm
6:55 AM 66.2 °F 60.8 °F 83% 29.77 in 6.2 mi ESE 31.1 mph - N/A Thunderstorm Thunderstorm
7:00 AM 65 °F 60 °F 80% 29.77 in 6 mi ESE 31.1 mph - - Thunderstorm Thunderstorm
7:55 AM 66.2 °F 60.8 °F 83% 29.74 in 6.2 mi ESE 29.9 mph - N/A   Partly Cloudy
8:55 AM 66.2 °F 59.0 °F 78% 29.74 in 6.2 mi ESE 31.1 mph - N/A   Partly Cloudy
9:55 AM 64.4 °F 60.8 °F 88% 29.74 in 6.2 mi East 29.9 mph - N/A   Partly Cloudy
10:00 AM 64 °F 61 °F 87% 29.74 in 6 mi East 29.9 mph - - Rain Light Rain
10:55 AM 66.2 °F 60.8 °F 83% 29.68 in 6.2 mi East 29.9 mph - N/A   Partly Cloudy
11:55 AM 68.0 °F 60.8 °F 78% 29.65 in 6.2 mi ESE 28.8 mph - N/A   Partly Cloudy
12:55 PM 68.0 °F 60.8 °F 78% 29.59 in 6.2 mi ESE 31.1 mph - N/A   Partly Cloudy
1:00 PM 68 °F 61 °F 71% 29.60 in 6 mi ESE 31.1 mph - -   Partly Cloudy
1:55 PM 69.8 °F 62.6 °F 78% 29.56 in 5.0 mi ESE 31.1 mph 44.9 mph N/A   Partly Cloudy
2:55 PM 68.0 °F 62.6 °F 83% 29.53 in 5.0 mi SE 38.0 mph 52.9 mph N/A   Scattered Clouds
3:29 PM 68.0 °F 60.8 °F 78% 29.53 in 5.0 mi SE 34.5 mph 49.5 mph N/A Thunderstorm Thunderstorm
3:55 PM 68.0 °F 62.6 °F 83% 29.53 in 4.3 mi SE 31.1 mph 47.2 mph N/A Rain , Thunderstorm Light Thunderstorms and Rain
4:00 PM 68 °F 62 °F 76% 29.53 in 2 mi SE 31.1 mph - - Rain , Thunderstorm Thunderstorms and Rain
4:55 PM 59.0 °F 53.6 °F 82% 29.53 in 6.2 mi East 18.4 mph - N/A Thunderstorm Thunderstorm
5:55 PM 59.0 °F 51.8 °F 77% 29.53 in 6.2 mi SW 27.6 mph - N/A   Scattered Clouds
6:55 PM 57.2 °F 50.0 °F 77% 29.56 in 6.2 mi SW 25.3 mph - N/A   Partly Cloudy
7:00 PM 58 °F 50 °F 66% 29.58 in 6 mi SW 25.3 mph - -   Partly Cloudy
7:55 PM 59.0 °F 51.8 °F 77% 29.56 in 6.2 mi SW 26.5 mph - N/A   Partly Cloudy
8:55 PM 59.0 °F 51.8 °F 77% 29.59 in 6.2 mi WSW 27.6 mph - N/A   Partly Cloudy
9:55 PM 59.0 °F 51.8 °F 77% 29.62 in 6.2 mi SW 18.4 mph - N/A   Partly Cloudy
10:00 PM 59 °F 51 °F 67% 29.62 in 6 mi SW 18.4 mph - -   Scattered Clouds
10:55 PM 59.0 °F 51.8 °F 77% 29.62 in 6.2 mi WSW 15.0 mph - N/A   Scattered Clouds
11:55 PM 59.0 °F 51.8 °F 77% 29.62 in 6.2 mi SW 9.2 mph - N/A   Scattered Clouds